Home > Weather > Solothurn > Past weeks

Flag for Switzerland Past Weather in Solothurn, Solothurn, Switzerland — Yesterday and Last 2 Weeks

Now
59 °F

Cool.


Feels Like: 59 °F
Forecast: 53 / 76 °F
Wind: 1 mph from Southwest

Location: Grenchen

Current Time: Jun 28, 2016 at 12:16:46 AM

Latest Report: Jun 27, 2016 at 11:00 PM


Visibility: N/A

Pressure: 30.18 "Hg

Humidity: 88%

Dew Point: 55 °F

Location of SolothurnLocation

Past Weather in Solothurn — Graph

°F

Solothurn Temperature Yesterday

Maximum temperature yesterday: 71 °F (at 7:00 PM)
Minimum temperature yesterday: 53 °F (at 6:00 AM)
Average temperature yesterday: 64 °F

High & Low Weather Summary for the Past Weeks

 TemperatureHumidityPressure
High90 °F (Jun 23, 6:00 PM)100% (Jun 18, 3:00 AM)30.29 "Hg (Jun 18, 3:00 AM)
Low48 °F (Jun 20, 6:00 AM)39% (Jun 24, 2:00 PM)29.57 "Hg (Jun 15, 5:00 PM)
Average63 °F79%29.99 "Hg
* Reported Jun 12 10:00 PM — Jun 27 10:00 PM, Solothurn, Weather by CustomWeather, © 2016

Note: Actual official high and low records may vary slightly from our data, if they occured in-between our weather recording intervals... More about our weather records

Advertising

Solothurn Weather History for the Previous 24 Hours

Scroll right to see more
 ConditionsComfort  
Time TempWeatherWind HumidityBarometerVisibility
10:00 PM
Mon, Jun 27
62 °FCool.3 mph79%30.16 "HgN/A
9:00 PM68 °FMild.1 mph58%30.14 "HgN/A
8:00 PM70 °FMild.3 mph52%30.12 "HgN/A
7:00 PM71 °FMild.2 mph47%30.12 "HgN/A
6:00 PM71 °FMild.2 mph49%30.12 "HgN/A
5:00 PM71 °FMild.2 mph44%30.13 "HgN/A
4:00 PM71 °FMild.2 mph42%30.14 "HgN/A
3:00 PM70 °FMild.3 mph44%30.14 "HgN/A
2:00 PM71 °FMild.5 mph46%30.14 "HgN/A
1:00 PM70 °FMild.3 mph43%30.16 "HgN/A
12:00 PM68 °FMild.3 mph48%30.17 "HgN/A
11:00 AM67 °FMild.2 mph49%30.19 "HgN/A
10:00 AM64 °FMild.3 mph62%30.20 "HgN/A
9:00 AM61 °FCool.1 mph78%30.20 "HgN/A
8:00 AM58 °FCool.3 mph88%30.21 "HgN/A
7:00 AM54 °FCool.2 mph97%30.21 "HgN/A
6:00 AM53 °FCool.1 mph95%30.21 "HgN/A
5:00 AM55 °FCool.2 mph93%30.20 "HgN/A
4:00 AM55 °FCool.2 mph88%30.19 "HgN/A
3:00 AM56 °FCool.2 mph87%30.18 "HgN/A
2:00 AM57 °FCool.2 mph85%30.18 "HgN/A
1:00 AM60 °FCool.1 mph73%30.17 "HgN/A
12:00 AM62 °FCool.5 mph63%30.16 "HgN/A
Weather by CustomWeather, © 2016

See weather overviewHow to use our weather pages